This demonstration page uses our WeatherBlox Daily Observations layout. Learn more.

Left ArrowRight Arrow

Hourly Observations for May 26, 2018

Temp ( °F °C ) Dew Point ( °F °C ) Humidity (%) Winds ( mph kmh ) Pressure ( in mb ) Visibility ( mi km ) Precip ( " mm )
12:56 am 00:56 Clear 73 22.8 61 16.1 66 66 SW 10 17 29.75 1008 10 16 0.00 0.00
1:56 am 01:56 Clear 72 22.2 60 15.6 66 66 WNW 5 7 29.76 1008 10 16 0.00 0.00
2:56 am 02:56 Clear 68 20 59 15 73 73 WNW 5 7 29.76 1008 10 16 0.00 0.00
3:56 am 03:56 Clear 68 20 58 14.4 70 70 W 3 6 29.76 1008 10 16 0.00 0.00
4:56 am 04:56 Clear 70 21.1 57 13.9 64 64 WNW 6 9 29.76 1008 10 16 0.00 0.00
5:56 am 05:56 Clear 69 20.6 56 13.3 63 63 WNW 5 7 29.77 1008 10 16 0.00 0.00
6:07 am 06:07 Partly Cloudy 70 21 55 13 60 60 NW 5 7 29.77 1008 10 16 0.00 0.00
6:56 am 06:56 Sunny 68 20 57 13.9 68 68 W 3 6 29.78 1008 10 16 0.00 0.00
7:15 am 07:15 Partly Cloudy 70 21 57 14 64 64 W 5 7 29.80 1009 10 16 0.00 0.00
7:56 am 07:56 Sunny 74 23.3 60 15.6 62 62 Calm 29.78 1009 10 16 0.00 0.00
8:56 am 08:56 Sunny 78 25.6 61 16.1 56 56 WNW 7 11 29.79 1009 10 16 0.00 0.00
9:56 am 09:56 Sunny 84 28.9 66 18.9 55 55 W 12 19 29.80 1009 10 16 0.00 0.00
10:56 am 10:56 Sunny 85 29.4 66 18.9 53 53 WNW 8 13 29.79 1009 10 16 0.00 0.00
11:56 am 11:56 Sunny 89 31.7 63 17.2 42 42 WSW 5 7 29.78 1009 10 16 0.00 0.00
12:56 pm 12:56 Sunny 92 33.3 61 16.1 36 36 WSW 9 15 29.76 1008 10 16 0.00 0.00
1:56 pm 13:56 Sunny 94 34.4 55 12.8 27 27 SW 9 15 29.75 1008 10 16 0.00 0.00
2:56 pm 14:56 Sunny 95 35 56 13.3 27 27 S 12 19 29.74 1007 10 16 0.00 0.00
3:56 pm 15:56 Sunny 94 34.4 56 13.3 28 28 S 12 19 29.73 1007 10 16 0.00 0.00
4:56 pm 16:56 Mostly Sunny 95 35 56 13.3 27 27 SSW 9 15 29.71 1006 10 16 0.00 0.00
5:56 pm 17:56 Mostly Sunny 94 34.4 57 13.9 29 29 S 13 20 29.71 1006 10 16 0.00 0.00
6:56 pm 18:56 Sunny 92 33.3 58 14.4 32 32 S 13 20 29.71 1006 10 16 0.00 0.00
7:56 pm 19:56 Sunny 88 31.1 59 15 38 38 S 10 17 29.72 1006 10 16 0.00 0.00
8:56 pm 20:56 Sunny 83 28.3 58 14.4 43 43 S 8 13 29.72 1007 10 16 0.00 0.00
9:13 pm 21:13 Mostly Clear 81 27 57 14 45 45 S 10 17 29.68 1005 10 16 0.00 0.00
9:56 pm 21:56 Clear 81 27.2 58 14.4 45 45 S 10 17 29.74 1007 10 16 0.00 0.00
10:56 pm 22:56 Clear 79 26.1 59 15 50 50 S 13 20 29.75 1008 10 16 0.00 0.00
11:56 pm 23:56 Clear 78 25.6 57 13.9 48 48 S 14 22 29.75 1007 10 16 0.00 0.00

Powered by AerisWeather